Weather History for KSVC - November, 2013

Change the Weather History Date:

Tuesday, November 26, 2013

  Actual Average (KDMN) Record (KDMN)
Temperature  
Mean Temperature 36 °F 46 °F  
Max Temperature 46 °F 62 °F 78 °F (1949)
Min Temperature 26 °F 31 °F 12 °F (2010)
Degree Days  
Heating Degree Days 29    
Moisture  
Dew Point 26 °F    
Average Humidity 72    
Maximum Humidity 93    
Minimum Humidity 40    
Precipitation  
Precipitation 0.00 in 0.03 in 0.32 in (1985)
Month to date precipitation 0.60  
Year to date precipitation 10.55  
Sea Level Pressure  
Sea Level Pressure 30.38 in    
Wind  
Wind Speed 7 mph (East)    
Max Wind Speed 17 mph    
Max Gust Speed 21 mph    
Visibility 10 miles    
Events Thunderstorm    
T = Trace of Precipitation, MM = Missing Value Source: NWS Daily Summary

Daily Weather History Graph

Daily Weather History Graph

Search for Another Location

Airport or City:

Trip Planner

Search our weather history database for the weather conditions in past years. The results will help you decide how hot, cold, wet, or windy it might be!

Date:

Astronomy

Nov. 26, 2013 Rise Set
Actual Time 6:52 AM MST 5:07 PM MST
Civil Twilight 6:26 AM MST 5:33 PM MST
Nautical Twilight 5:55 AM MST 6:04 PM MST
Astronomical Twilight 5:26 AM MST 6:33 PM MST
Moon 12:20 AM MST (11/26) 12:56 PM MST (11/26)
Length of Visible Light 11h 07m
Length of Day
10h 14m
Last Quarter, 40% of the Moon is Illuminated
Nov 26
Last Quarter
Dec 2
New
Dec 9
First Quarter
Dec 17
Full
Dec 25
Last Quarter

Hourly Weather History & Observations

Time (MST) Temp. Windchill Dew Point Humidity Pressure Visibility Wind Dir Wind Speed Gust Speed Precip Events Conditions
12:15 AM 32.0 °F - 28.4 °F 87% 30.33 in 10.0 mi Calm Calm - N/A   Clear
12:35 AM 30.2 °F 26.7 °F 26.6 °F 86% 30.33 in 10.0 mi NW 3.5 mph - N/A   Clear
12:55 AM 32.0 °F - 28.4 °F 87% 30.32 in 10.0 mi Calm Calm - N/A   Clear
1:15 AM 28.4 °F 21.2 °F 26.6 °F 93% 30.32 in 10.0 mi North 6.9 mph - N/A   Clear
1:35 AM 28.4 °F 22.2 °F 26.6 °F 93% 30.33 in 10.0 mi WNW 5.8 mph - N/A   Clear
1:55 AM 26.6 °F 18.2 °F 24.8 °F 93% 30.32 in 10.0 mi NNW 8.1 mph - N/A   Clear
2:15 AM 26.6 °F 18.2 °F 24.8 °F 93% 30.32 in 10.0 mi North 8.1 mph - N/A   Clear
2:35 AM 28.4 °F 21.2 °F 26.6 °F 93% 30.33 in 10.0 mi WNW 6.9 mph - N/A   Clear
2:55 AM 28.4 °F 21.2 °F 26.6 °F 93% 30.33 in 10.0 mi NW 6.9 mph - N/A   Clear
3:15 AM 26.6 °F 19.1 °F 24.8 °F 93% 30.33 in 10.0 mi North 6.9 mph - N/A   Clear
3:35 AM 26.6 °F 18.2 °F 24.8 °F 93% 30.34 in 10.0 mi NNW 8.1 mph - N/A   Clear
3:55 AM 26.6 °F 17.5 °F 24.8 °F 93% 30.34 in 10.0 mi NNW 9.2 mph - N/A   Clear
4:15 AM 26.6 °F 18.2 °F 24.8 °F 93% 30.34 in 10.0 mi North 8.1 mph - N/A   Clear
4:35 AM 28.4 °F 19.7 °F 26.6 °F 93% 30.34 in 10.0 mi North 9.2 mph - N/A   Clear
4:55 AM 28.4 °F 19.7 °F 26.6 °F 93% 30.34 in 10.0 mi North 9.2 mph - N/A   Clear
5:15 AM 28.4 °F 21.2 °F 24.8 °F 86% 30.35 in 10.0 mi NNW 6.9 mph - N/A   Clear
5:35 AM 28.4 °F 18.5 °F 24.8 °F 86% 30.35 in 10.0 mi NNW 11.5 mph - N/A   Clear
5:55 AM 30.2 °F 22.6 °F 26.6 °F 86% 30.35 in 10.0 mi NNW 8.1 mph - N/A   Clear
6:15 AM 28.4 °F 22.2 °F 24.8 °F 86% 30.36 in 10.0 mi NNW 5.8 mph - N/A   Clear
6:35 AM 26.6 °F 19.1 °F 24.8 °F 93% 30.36 in 10.0 mi NNW 6.9 mph - N/A Thunderstorm Clear
6:55 AM 26.6 °F 20.0 °F 24.8 °F 93% 30.37 in 10.0 mi North 5.8 mph - N/A   Clear
7:15 AM 26.6 °F 18.2 °F 24.8 °F 93% 30.37 in 10.0 mi North 8.1 mph - N/A   Clear
7:35 AM 28.4 °F 23.3 °F 24.8 °F 86% 30.38 in 10.0 mi North 4.6 mph - N/A   Clear
7:55 AM 32.0 °F - 26.6 °F 80% 30.39 in 10.0 mi Calm Calm - N/A   Clear
8:15 AM 33.8 °F - 28.4 °F 81% 30.40 in 10.0 mi Calm Calm - N/A   Clear
8:35 AM 33.8 °F - 28.4 °F 81% 30.41 in 10.0 mi Calm Calm - N/A   Clear
8:55 AM 33.8 °F 29.6 °F 28.4 °F 81% 30.41 in 10.0 mi ESE 4.6 mph - N/A   Clear
9:15 AM 35.6 °F - 26.6 °F 70% 30.41 in 10.0 mi Calm Calm - N/A   Clear
9:35 AM 37.4 °F 34.9 °F 26.6 °F 65% 30.42 in 10.0 mi SE 3.5 mph - N/A   Clear
9:55 AM 39.2 °F 35.0 °F 26.6 °F 61% 30.42 in 10.0 mi SSE 5.8 mph - N/A   Clear
10:15 AM 39.2 °F 34.2 °F 26.6 °F 61% 30.42 in 10.0 mi South 6.9 mph - N/A   Clear
10:35 AM 39.2 °F 33.0 °F 30.2 °F 70% 30.42 in 10.0 mi South 9.2 mph - N/A   Clear
10:55 AM 41.0 °F 34.7 °F 28.4 °F 61% 30.42 in 10.0 mi South 10.4 mph - N/A Thunderstorm Clear
11:15 AM 41.0 °F 34.7 °F 28.4 °F 61% 30.42 in 10.0 mi SSE 10.4 mph - N/A   Clear
11:35 AM 41.0 °F 34.7 °F 26.6 °F 57% 30.42 in 10.0 mi South 10.4 mph - N/A   Clear
11:55 AM 41.0 °F 34.7 °F 26.6 °F 57% 30.41 in 10.0 mi South 10.4 mph 17.3 mph N/A   Clear
12:15 PM 42.8 °F 36.6 °F 28.4 °F 57% 30.40 in 10.0 mi SSE 11.5 mph - N/A   Clear
12:35 PM 44.6 °F 39.2 °F 26.6 °F 49% 30.39 in 10.0 mi SSE 10.4 mph 16.1 mph N/A   Clear
12:55 PM 44.6 °F 38.4 °F 26.6 °F 49% 30.38 in 10.0 mi SSE 12.7 mph 16.1 mph N/A   Clear
1:15 PM 46.4 °F 41.1 °F 26.6 °F 46% 30.37 in 10.0 mi South 11.5 mph - N/A   Clear
1:35 PM 46.4 °F 40.7 °F 24.8 °F 43% 30.37 in 10.0 mi South 12.7 mph - N/A   Clear
1:55 PM 46.4 °F 39.8 °F 24.8 °F 43% 30.37 in 10.0 mi SSE 16.1 mph 19.6 mph N/A   Clear
2:15 PM 46.4 °F 39.8 °F 24.8 °F 43% 30.36 in 10.0 mi SSE 16.1 mph - N/A   Clear
2:35 PM 46.4 °F 40.4 °F 24.8 °F 43% 30.36 in 10.0 mi SSE 13.8 mph 17.3 mph N/A   Clear
2:55 PM 46.4 °F 40.4 °F 24.8 °F 43% 30.37 in 10.0 mi SSE 13.8 mph 20.7 mph N/A   Clear
3:15 PM 46.4 °F 39.5 °F 23.0 °F 40% 30.37 in 10.0 mi SSE 17.3 mph - N/A   Clear
3:35 PM 46.4 °F 40.1 °F 23.0 °F 40% 30.37 in 10.0 mi SSE 15.0 mph - N/A   Clear
3:55 PM 44.6 °F 38.4 °F 24.8 °F 46% 30.37 in 10.0 mi SSE 12.7 mph - N/A   Clear
4:15 PM 44.6 °F 38.8 °F 24.8 °F 46% 30.37 in 10.0 mi SSE 11.5 mph - N/A   Clear
4:35 PM 42.8 °F 36.2 °F 24.8 °F 49% 30.36 in 10.0 mi SSE 12.7 mph - N/A   Clear
4:55 PM 41.0 °F 34.7 °F 26.6 °F 57% 30.36 in 10.0 mi SSE 10.4 mph - N/A Thunderstorm Clear
5:15 PM 39.2 °F 33.6 °F 26.6 °F 61% 30.37 in 10.0 mi SSE 8.1 mph - N/A   Clear
5:35 PM 37.4 °F 31.4 °F 26.6 °F 65% 30.37 in 10.0 mi SSE 8.1 mph - N/A   Clear
5:55 PM 35.6 °F 30.7 °F 26.6 °F 70% 30.38 in 10.0 mi SE 5.8 mph - N/A   Clear
6:15 PM 35.6 °F 29.9 °F 26.6 °F 70% 30.38 in 10.0 mi ESE 6.9 mph - N/A   Clear
6:35 PM 35.6 °F 29.2 °F 26.6 °F 70% 30.39 in 10.0 mi East 8.1 mph - N/A   Clear
6:55 PM 35.6 °F 29.2 °F 24.8 °F 65% 30.39 in 10.0 mi ESE 8.1 mph - N/A   Clear
7:15 PM 35.6 °F 29.9 °F 24.8 °F 65% 30.40 in 10.0 mi East 6.9 mph - N/A   Clear
7:35 PM 35.6 °F 31.7 °F 24.8 °F 65% 30.40 in 10.0 mi East 4.6 mph - N/A   Clear
7:55 PM 32.0 °F 27.5 °F 26.6 °F 80% 30.41 in 10.0 mi ENE 4.6 mph - N/A   Clear
8:15 PM 32.0 °F 26.4 °F 24.8 °F 75% 30.41 in 10.0 mi ENE 5.8 mph - N/A   Clear
8:35 PM 32.0 °F 24.8 °F 24.8 °F 75% 30.41 in 10.0 mi ENE 8.1 mph - N/A   Clear
8:55 PM 32.0 °F 24.8 °F 26.6 °F 80% 30.41 in 10.0 mi ENE 8.1 mph - N/A   Clear
9:15 PM 32.0 °F 24.8 °F 26.6 °F 80% 30.41 in 10.0 mi ENE 8.1 mph - N/A   Clear
9:35 PM 32.0 °F 25.6 °F 24.8 °F 75% 30.41 in 10.0 mi ENE 6.9 mph - N/A   Clear
9:55 PM 32.0 °F 26.4 °F 24.8 °F 75% 30.41 in 10.0 mi ENE 5.8 mph - N/A   Clear
10:15 PM 32.0 °F 26.4 °F 24.8 °F 75% 30.42 in 10.0 mi ENE 5.8 mph - N/A   Clear
10:35 PM 32.0 °F 25.6 °F 24.8 °F 75% 30.42 in 10.0 mi ENE 6.9 mph - N/A   Clear
10:55 PM 32.0 °F 23.6 °F 24.8 °F 75% 30.41 in 10.0 mi ENE 10.4 mph - N/A   Clear
11:15 PM 32.0 °F 24.8 °F 24.8 °F 75% 30.41 in 10.0 mi ENE 8.1 mph - N/A   Clear
11:35 PM 32.0 °F 24.8 °F 24.8 °F 75% 30.41 in 10.0 mi ENE 8.1 mph - N/A Thunderstorm Clear
11:55 PM 32.0 °F 26.4 °F 24.8 °F 75% 30.41 in 10.0 mi ENE 5.8 mph - N/A   Clear